Weather History for Hurlburt Field, FL

Change the Weather History Date:

Friday, January 25, 2013

  Actual Average Record
Temperature  
Mean Temperature 56 °F -  
Max Temperature 69 °F 59 °F 71 °F (2002)
Min Temperature 44 °F 42 °F 24 °F (2003)
Degree Days  
Heating Degree Days 8    
Growing Degree Days 6 (Base 50)    
Moisture  
Dew Point 57 °F    
Average Humidity 97    
Maximum Humidity 100    
Minimum Humidity 78    
Precipitation  
Precipitation 0.00 in - - ()
Sea Level Pressure  
Sea Level Pressure 30.25 in    
Wind  
Wind Speed 4 mph (WSW)    
Max Wind Speed 13 mph    
Max Gust Speed -    
Visibility 10 miles    
Events Rain    
Averages and records for this station are not official NWS values.
T = Trace of Precipitation, MM = Missing Value Source: NWS Daily Summary

Daily Weather History Graph

Daily Weather History Graph

Search for Another Location

Airport:

Trip Planner

Search our weather history database for the weather conditions in past years. The results will help you decide how hot, cold, wet, or windy it might be!

Date:

Astronomy

Jan. 25, 2013 Rise Set
Actual Time 6:41 AM CST 5:17 PM CST
Civil Twilight 6:15 AM CST 5:42 PM CST
Nautical Twilight 5:46 AM CST 6:11 PM CST
Astronomical Twilight 5:18 AM CST 6:40 PM CST
Moon 4:13 PM CST (1/25) 5:19 AM CST (1/25)
Length of Visible Light 11h 27m
Length of Day
10h 36m
Waxing Gibbous, 98% of the Moon is Illuminated
Jan 25
Waxing Gibbous
Jan 26
Full
Feb 3
Last Quarter
Feb 10
New
Feb 17
First Quarter

Hourly Weather History & Observations

Time (CST) Temp. Windchill Dew Point Humidity Pressure Visibility Wind Dir Wind Speed Gust Speed Precip Events Conditions
12:47 AM 48.2 °F - 48.2 °F 100% 30.28 in 10.0 mi North 3.5 mph - N/A   Light Drizzle
12:55 AM 48.6 °F - 48.6 °F 100% 30.28 in 10.0 mi North 4.6 mph - 0.00 in   Light Drizzle
1:01 AM 48.2 °F - 48.2 °F 100% 30.28 in 10.0 mi North 3.5 mph - N/A   Clear
1:17 AM 48.2 °F - 48.2 °F 100% 30.28 in 10.0 mi NNE 3.5 mph - N/A   Light Drizzle
1:37 AM 48.2 °F - 48.2 °F 100% 30.28 in 10.0 mi North 4.6 mph - N/A   Scattered Clouds
1:41 AM 48.2 °F - 48.2 °F 100% 30.28 in 10.0 mi North 3.5 mph - N/A   Light Drizzle
1:55 AM 48.2 °F - 48.2 °F 100% 30.27 in 10.0 mi Calm Calm - 0.00 in   Light Drizzle
2:55 AM 47.1 °F - 47.1 °F 100% 30.26 in 10.0 mi Calm Calm - 0.00 in   Light Drizzle
3:47 AM 46.4 °F - 46.4 °F 100% 30.26 in 10.0 mi Calm Calm - N/A   Clear
3:55 AM 46.9 °F - 46.9 °F 100% 30.26 in 9.0 mi Calm Calm - 0.00 in   Clear
3:59 AM 46.4 °F - 46.4 °F 100% 30.26 in 8.0 mi Calm Calm - N/A   Clear
4:00 AM 46.4 °F 45.2 °F 46.4 °F 100% 30.26 in 8.0 mi ENE 3.5 mph - N/A   Light Drizzle
4:04 AM 46.4 °F 45.2 °F 46.4 °F 100% 30.26 in 8.0 mi ENE 3.5 mph - N/A   Light Drizzle
4:34 AM 46.4 °F 45.2 °F 46.4 °F 100% 30.26 in 10.0 mi NNE 3.5 mph - N/A   Clear
4:35 AM 46.4 °F 45.2 °F 46.4 °F 100% 30.26 in 10.0 mi NNE 3.5 mph - N/A   Light Drizzle
4:54 AM 44.6 °F 42.2 °F 44.6 °F 100% 30.27 in 10.0 mi North 4.6 mph - N/A   Clear
4:55 AM 44.4 °F 42.0 °F 44.4 °F 100% 30.27 in 10.0 mi North 4.6 mph - 0.00 in   Clear
5:10 AM 44.6 °F 43.1 °F 44.6 °F 100% 30.27 in 10.0 mi NNE 3.5 mph - N/A   Light Drizzle
5:22 AM 44.6 °F 43.1 °F 44.6 °F 100% 30.27 in 9.0 mi ENE 3.5 mph - N/A   Clear
5:31 AM 46.4 °F 45.2 °F 46.4 °F 100% 30.27 in 10.0 mi NE 3.5 mph - N/A   Light Drizzle
5:55 AM 46.9 °F - 46.9 °F 100% 30.28 in 9.0 mi NNE 4.6 mph - 0.00 in   Light Drizzle
5:57 AM 46.4 °F 44.3 °F 46.4 °F 100% 30.29 in 9.0 mi North 4.6 mph - N/A   Light Drizzle
6:05 AM 46.4 °F 43.5 °F 46.4 °F 100% 30.29 in 9.0 mi North 5.8 mph - N/A   Light Drizzle
6:13 AM 44.6 °F 42.2 °F 44.6 °F 100% 30.29 in 10.0 mi North 4.6 mph - N/A   Clear
6:55 AM 44.4 °F 42.0 °F 44.4 °F 100% 30.30 in 10.0 mi North 4.6 mph - 0.00 in   Scattered Clouds
6:56 AM 44.6 °F 42.2 °F 44.6 °F 100% 30.30 in 10.0 mi North 4.6 mph - N/A   Light Drizzle
7:24 AM 46.4 °F 45.2 °F 46.4 °F 100% 30.30 in 10.0 mi NNE 3.5 mph - N/A   Light Drizzle
7:27 AM 48.2 °F - 48.2 °F 100% 30.30 in 10.0 mi NNE 3.5 mph - N/A   Light Drizzle
7:29 AM 48.2 °F - 48.2 °F 100% 30.30 in 10.0 mi NNE 3.5 mph - N/A   Light Drizzle
7:32 AM 48.2 °F - 48.2 °F 100% 30.30 in 10.0 mi NNE 3.5 mph - N/A   Light Drizzle
7:36 AM 48.2 °F - 48.2 °F 100% 30.30 in 10.0 mi NNE 3.5 mph - N/A   Light Drizzle
7:39 AM 48.2 °F - 48.2 °F 100% 30.30 in 10.0 mi Calm Calm - N/A   Light Drizzle
7:55 AM 50.9 °F - 50.9 °F 100% 30.31 in 10.0 mi North 3.5 mph - 0.00 in   Light Drizzle
8:50 AM 57.2 °F - 57.2 °F 100% 30.32 in 10.0 mi Calm Calm - N/A   Light Drizzle
8:54 AM 57.2 °F - 57.2 °F 100% 30.31 in 10.0 mi ENE 3.5 mph - N/A   Light Drizzle
8:55 AM 58.1 °F - 58.1 °F 100% 30.32 in 10.0 mi ENE 4.6 mph - 0.00 in   Light Drizzle
9:55 AM 66.4 °F - 66.4 °F 100% 30.31 in 10.0 mi SE 4.6 mph - 0.00 in   Light Drizzle
10:20 AM 68.0 °F - 66.2 °F 94% 30.31 in 10.0 mi Variable 5.8 mph - N/A   Light Drizzle
10:23 AM 68.0 °F - 66.2 °F 94% 30.31 in 10.0 mi SSE 6.9 mph - N/A   Light Drizzle
10:33 AM 68.0 °F - 64.4 °F 88% 30.30 in 10.0 mi South 5.8 mph - N/A   Scattered Clouds
10:45 AM 68.0 °F - 64.4 °F 88% 30.29 in 10.0 mi SSE 8.1 mph - N/A Rain Light Rain
10:55 AM 67.3 °F - 65.3 °F 93% 30.28 in 10.0 mi SSE 9.2 mph - 0.00 in   Light Drizzle
11:55 AM 64.8 °F - 63.9 °F 97% 30.25 in 10.0 mi SE 10.4 mph - 0.00 in   Clear
12:02 PM 66.2 °F - 64.4 °F 94% 30.24 in 10.0 mi SSE 12.7 mph - N/A   Light Drizzle
12:41 PM 68.0 °F - 66.2 °F 94% 30.23 in 10.0 mi SSE 6.9 mph - N/A   Clear
12:48 PM 68.0 °F - 66.2 °F 94% 30.23 in 10.0 mi SSE 9.2 mph - N/A   Light Drizzle
12:55 PM 67.1 °F - 66.2 °F 97% 30.23 in 10.0 mi South 6.9 mph - 0.00 in   Clear
1:07 PM 68.0 °F - 66.2 °F 94% 30.23 in 10.0 mi SSE 5.8 mph - N/A   Light Drizzle
1:17 PM 68.0 °F - 66.2 °F 94% 30.22 in 10.0 mi SSE 6.9 mph - N/A   Clear
1:25 PM 68.0 °F - 66.2 °F 94% 30.22 in 10.0 mi South 8.1 mph - N/A   Light Drizzle
1:52 PM 68.0 °F - 66.2 °F 94% 30.21 in 10.0 mi South 10.4 mph - N/A   Clear
1:55 PM 69.3 °F - 66.4 °F 91% 30.21 in 10.0 mi South 8.1 mph - 0.00 in   Clear
2:40 PM 69.8 °F - 62.6 °F 78% 30.22 in 10.0 mi SSW 11.5 mph - N/A   Light Drizzle
2:42 PM 69.8 °F - 62.6 °F 78% 30.22 in 10.0 mi SSW 9.2 mph - N/A   Light Drizzle
2:55 PM 68.2 °F - 61.9 °F 80% 30.22 in 10.0 mi SW 9.2 mph - 0.00 in   Light Drizzle
3:01 PM 68.0 °F - 62.6 °F 83% 30.22 in 10.0 mi SW 6.9 mph - N/A   Overcast
3:02 PM 68.0 °F - 62.6 °F 83% 30.22 in 10.0 mi SW 6.9 mph - N/A   Light Drizzle
3:26 PM 68.0 °F - 62.6 °F 83% 30.21 in 10.0 mi SSW 9.2 mph - N/A   Mostly Cloudy
3:36 PM 68.0 °F - 62.6 °F 83% 30.21 in 10.0 mi SW 10.4 mph - N/A   Scattered Clouds
3:40 PM 68.0 °F - 62.6 °F 83% 30.21 in 10.0 mi SSW 9.2 mph - N/A   Light Drizzle
3:55 PM 68.2 °F - 62.6 °F 82% 30.21 in 10.0 mi WSW 5.8 mph - 0.00 in   Light Drizzle
4:55 PM 65.5 °F - 61.9 °F 88% 30.19 in 10.0 mi SSW 4.6 mph - 0.00 in   Light Drizzle
5:38 PM 64.4 °F - 62.6 °F 94% 30.19 in 10.0 mi SW 4.6 mph - N/A   Mostly Cloudy
5:55 PM 64.0 °F - 63.3 °F 97% 30.19 in 10.0 mi SW 3.5 mph - 0.00 in   Mostly Cloudy
6:07 PM 64.4 °F - 62.6 °F 94% 30.19 in 10.0 mi SW 4.6 mph - N/A   Light Drizzle
6:55 PM 63.3 °F - 63.3 °F 100% 30.19 in 10.0 mi SW 4.6 mph - 0.00 in   Light Drizzle
7:30 PM 62.6 °F - 62.6 °F 100% 30.19 in 10.0 mi SSW 4.6 mph - N/A   Clear
7:35 PM 62.6 °F - 62.6 °F 100% 30.18 in 10.0 mi SSW 5.8 mph - N/A   Light Drizzle
7:55 PM 63.7 °F - 63.7 °F 100% 30.19 in 10.0 mi SW 4.6 mph - 0.00 in   Light Drizzle
8:15 PM 64.4 °F - 62.6 °F 94% 30.19 in 10.0 mi WSW 6.9 mph - N/A   Clear
8:17 PM 64.4 °F - 62.6 °F 94% 30.19 in 10.0 mi WSW 5.8 mph - N/A   Light Drizzle
8:55 PM 63.9 °F - 63.9 °F 100% 30.20 in 10.0 mi WSW 6.9 mph - 0.00 in   Light Drizzle
9:05 PM 64.4 °F - 64.4 °F 100% 30.20 in 10.0 mi WSW 6.9 mph - N/A   Clear
9:06 PM 64.4 °F - 64.4 °F 100% 30.20 in 10.0 mi WSW 5.8 mph - N/A   Light Drizzle
9:50 PM 62.6 °F - 62.6 °F 100% 30.21 in 10.0 mi West 3.5 mph - N/A   Clear
9:55 PM 62.8 °F - 62.8 °F 100% 30.21 in 10.0 mi West 3.5 mph - 0.00 in   Clear
10:00 PM 62.6 °F - 62.6 °F 100% 30.21 in 10.0 mi West 3.5 mph - N/A   Light Drizzle
10:06 PM 62.6 °F - 62.6 °F 100% 30.22 in 10.0 mi WNW 3.5 mph - N/A   Light Drizzle
10:15 PM 62.6 °F - 62.6 °F 100% 30.22 in 10.0 mi WNW 4.6 mph - N/A   Mostly Cloudy
10:16 PM 62.6 °F - 62.6 °F 100% 30.22 in 10.0 mi WNW 4.6 mph - N/A   Light Drizzle
10:27 PM 62.6 °F - 62.6 °F 100% 30.22 in 10.0 mi West 3.5 mph - N/A   Mostly Cloudy
10:28 PM 62.6 °F - 62.6 °F 100% 30.22 in 10.0 mi West 3.5 mph - N/A   Light Drizzle
10:31 PM 62.6 °F - 62.6 °F 100% 30.22 in 10.0 mi Calm Calm - N/A   Light Drizzle
10:38 PM 62.6 °F - 62.6 °F 100% 30.21 in 10.0 mi West 3.5 mph - N/A   Scattered Clouds
10:55 PM 61.5 °F - 61.5 °F 100% 30.21 in 10.0 mi WSW 3.5 mph - 0.00 in   Clear
10:56 PM 60.8 °F - 60.8 °F 100% 30.21 in 10.0 mi WSW 3.5 mph - N/A   Light Drizzle
10:57 PM 60.8 °F - 60.8 °F 100% 30.21 in 10.0 mi WSW 3.5 mph - N/A   Clear
11:00 PM 60.8 °F - 60.8 °F 100% 30.21 in 10.0 mi WSW 4.6 mph - N/A   Light Drizzle
11:36 PM 60.8 °F - 60.8 °F 100% 30.21 in 10.0 mi WSW 3.5 mph - N/A   Clear
11:43 PM 60.8 °F - 60.8 °F 100% 30.21 in 10.0 mi WSW 3.5 mph - N/A   Light Drizzle
11:55 PM 61.3 °F - 61.3 °F 100% 30.21 in 10.0 mi WSW 4.6 mph - 0.00 in   Light Drizzle